TimeCST,TemperatureF,Dew PointF,Humidity,Sea Level PressureIn,VisibilityMPH,Wind Direction,Wind SpeedMPH,Gust SpeedMPH,PrecipitationIn,Events,Conditions,WindDirDegrees,DateUTC
12:43 AM,21.2,17.6,86,30.25,1.8,Calm,Calm,-,N/A,,Clear,0,2012-01-09 06:43:00
12:52 AM,23.0,19.0,85,30.27,1.8,Calm,Calm,-,N/A,,Clear,0,2012-01-09 06:52:00
1:08 AM,21.2,19.4,93,30.24,0.8,SSW,3.5,-,N/A,,Clear,200,2012-01-09 07:08:00
1:13 AM,23.0,19.4,86,30.23,2.0,South,3.5,-,N/A,,Clear,190,2012-01-09 07:13:00
1:21 AM,21.2,19.4,93,30.23,4.0,SSW,3.5,-,N/A,,Clear,200,2012-01-09 07:21:00
1:52 AM,23.0,19.0,85,30.26,5.0,SW,3.5,-,N/A,,Clear,230,2012-01-09 07:52:00
2:52 AM,23.0,19.9,88,30.26,4.0,SW,5.8,-,N/A,,Clear,220,2012-01-09 08:52:00
3:52 AM,25.0,21.0,85,30.24,7.0,SSW,6.9,-,N/A,,Clear,210,2012-01-09 09:52:00
4:52 AM,23.0,19.0,85,30.23,6.0,WSW,3.5,-,N/A,,Clear,240,2012-01-09 10:52:00
5:52 AM,23.0,19.0,85,30.22,7.0,WSW,5.8,-,N/A,,Clear,250,2012-01-09 11:52:00
6:52 AM,26.1,21.0,81,30.20,7.0,SSW,8.1,-,N/A,,Clear,200,2012-01-09 12:52:00
7:52 AM,27.0,21.9,81,30.20,6.0,SW,8.1,-,N/A,,Haze,230,2012-01-09 13:52:00
8:52 AM,30.9,26.1,82,30.19,7.0,SW,10.4,-,N/A,,Clear,220,2012-01-09 14:52:00
10:52 AM,39.9,27.0,60,30.15,10.0,SW,16.1,-,N/A,,Clear,230,2012-01-09 16:52:00
11:52 AM,43.0,26.1,51,30.09,10.0,SW,19.6,24.2,N/A,,Clear,230,2012-01-09 17:52:00
12:52 PM,46.0,27.0,47,30.05,10.0,SW,20.7,29.9,N/A,,Clear,230,2012-01-09 18:52:00
1:52 PM,48.0,27.0,44,30.02,10.0,WSW,21.9,29.9,N/A,,Clear,250,2012-01-09 19:52:00
2:52 PM,48.0,27.0,44,30.02,10.0,WSW,20.7,32.2,N/A,,Clear,250,2012-01-09 20:52:00
3:52 PM,46.9,27.0,46,30.02,10.0,WSW,17.3,25.3,N/A,,Clear,240,2012-01-09 21:52:00
4:52 PM,43.0,26.1,51,30.04,10.0,WSW,15.0,-,N/A,,Clear,240,2012-01-09 22:52:00
5:52 PM,41.0,26.1,55,30.05,10.0,SW,12.7,-,N/A,,Clear,230,2012-01-09 23:52:00
6:52 PM,39.9,26.1,58,30.06,10.0,WSW,12.7,-,N/A,,Clear,240,2012-01-10 00:52:00
8:52 PM,37.0,25.0,62,30.08,10.0,WSW,10.4,-,N/A,,Clear,250,2012-01-10 02:52:00
9:52 PM,34.0,25.0,70,30.09,10.0,WSW,6.9,-,N/A,,Clear,240,2012-01-10 03:52:00
10:52 PM,30.9,23.0,72,30.07,10.0,West,10.4,-,N/A,,Clear,270,2012-01-10 04:52:00
11:52 PM,30.9,24.1,76,30.05,10.0,Variable,4.6,-,N/A,,Clear,0,2012-01-10 05:52:00